Погода в Андреевке

Украина / Днепропетровская область     48°14′00″N   33°48′30″E
темп.,
°C
ветер,
м/с
пор.,
м/с
влажн.,
%
обл.,
%
осадки,
мм/ч
давл.,
гПа
погр.,
м
15 мая, сб
сб1500:00+13ююз48827 0.0 1010156
03:00+11ююз488331 0.0 1011136
06:00+11ююз38868 0.0 1011163
09:00+18ююз58650 0.0 1012565
12:00+22юз68485 0.0 10121826
15:00+23юз574163 0.0 10122539
18:00+21юз465323 0.0 1012581
21:00+16юз336765 0.0 101234
16 мая, вс
вс1600:00+14зюз22740 0.0 101314
03:00+13ю11764 0.0 101310
06:00+13ссв1177100 0.0 101310
09:00+19всв335824 0.0 1013366
12:00+23всв444583 0.0 10121491
15:00+25всв554188 0.0 10101938
18:00+23св4752100 0.0 1009315
21:00+18ссв51270100 0.2 1008250
17 мая, пн
пн1700:00+17св3788100 1.7 1006174
03:00+16ссв4893100 4.1 1005158
06:00+15ссв489414 0.0 1002212
09:00+21в2371100 0.1 1003479
12:00+23вюв456657 2.3 10021071
15:00+24ююв6858100 2.3 10021468
18:00+22ююв69652 0.0 10021089
21:00+16юв7119157 0.0 1004451
18 мая, вт
вт1800:00+16ююв71088100 0.0 1004600
03:00+16юз6119054 0.4 1004520
06:00+13ю489864 0.0 1005313
09:00+18ю6978100 0.0 1006571
12:00+21ю6963100 0.1 10051291
15:00+21ююз91166100 3.1 10051541
18:00+18зюз711735 2.8 1006811
21:00+14з49894 4.3 1008252
19 мая, ср
ср1900:00+11з49900 0.0 1010209
03:00+10зюз36910 0.0 1011110
06:00+10зюз35893 0.0 1012111
09:00+16зюз356547 0.0 1012560
12:00+19зюз3446100 0.0 10121483
15:00+20юз3447100 0.0 10111657
18:00+17юз4563100 0.9 1012217
21:00+13ююз5889100 2.3 1014212